Tracking 29892 objects as of 21-Nov-2024
HD Live streaming from Space Station
objects crossing your sky now

RADUGA 23

Track RADUGA 23 now!
RADUGA 23 is classified as:


NORAD ID: 19928
Int'l Code: 1989-030A
Perigee: 35,699.8 km
Apogee: 35,884.8 km
Inclination: 12.5 °
Period: 1,436.0 minutes
Semi major axis: 42163 km
RCS: 3.1622 m2 (large)
Launch date: April 14, 1989
Source: Commonwealth of Independent States (former USSR) (CIS)
Launch site: TYURATAM MISSILE AND SPACE COMPLEX (TTMTR)
Your satellite tracking list
Your tracking list is empty




NASA's NSSDC Master Catalog

Two Line Element Set (TLE):
1 19928U 89030A   24325.76128411  .00000122  00000-0  00000-0 0  9990
2 19928  12.4742 335.8746 0021937 194.0966 192.9158  1.00277007129106
Source of the keplerian elements: AFSPC